Flag for Venezuela Weather past 2 weeks in Valencia, Venezuela

Now
79 °F

Passing clouds.


Feels Like: 81 °F
Forecast: 69 / 89 °F
Wind: 6 mph from East

Location: Valencia Airport

Current Time: May 25, 2015 at 5:53:36 AM

Latest Report: May 25, 2015 at 4:30 AM


Visibility: N/A

Pressure: 29.98 "Hg

Humidity: 70%

Dew point: 68 °F

Location of ValenciaLocation

Historic Weather in Valencia — Graph

°F

Valencia temperature yesterday

Maximum temperature yesterday: 95 °F (at 2:30 PM)
Minimum temperature yesterday: 79 °F (at 4:30 AM)
Average temperature yesterday: 86 °F

Past Weeks' High & Low Weather Summary

 TemperatureHumidityPressure
High97 °F (May 10, 2:30 PM)100% (May 14, 12:30 PM)30.09 "Hg (May 14, 12:30 PM)
Low37 °F (May 14, 12:30 PM)36% (May 17, 3:30 PM)29.83 "Hg (May 13, 4:30 AM)
Average86 °F61%29.96 "Hg
* Reported May 10 5:30 AM — May 25 4:30 AM, Valencia, Weather by CustomWeather, © 2015

Note: Actual official high and low records may vary slightly from our data, if they occured in-between our weather recording intervals... More about our weather records

Advertising

Valencia weather history for previous 24 hours

 ConditionsComfort  
Time TempWeatherWind HumidityBarometerVisibility
4:30 AM
Mon, May 25
79 °FPassing clouds.6 mph70%29.98 "HgN/A
10:30 PM
Sun, May 24
82 °FPassing clouds.9 mph66%29.98 "HgN/A
9:30 PM81 °FPassing clouds.6 mph70%29.95 "HgN/A
8:30 PM82 °FPassing clouds.3 mph66%29.92 "HgN/A
7:30 PM82 °FPassing clouds.6 mph66%29.89 "HgN/A
6:30 PM84 °FPassing clouds.7 mph58%29.86 "HgN/A
5:30 PM91 °FPassing clouds.7 mph52%29.86 "HgN/A
4:30 PM93 °FPassing clouds.6 mph49%29.86 "HgN/A
3:30 PM93 °FPassing clouds.7 mph44%29.86 "HgN/A
2:30 PM95 °FPassing clouds.7 mph44%29.89 "HgN/A
1:30 PM93 °FPassing clouds.7 mph47%29.92 "HgN/A
12:30 PM91 °FPassing clouds.8 mph49%29.98 "HgN/A
11:30 AM90 °FPassing clouds.9 mph52%30.01 "HgN/A
10:30 AM88 °FScattered clouds.7 mph55%30.04 "HgN/A
9:30 AM86 °FScattered clouds.3 mph59%30.04 "HgN/A
8:30 AM84 °FScattered clouds.2 mph66%30.04 "HgN/A
7:30 AM81 °FScattered clouds.3 mph79%30.04 "HgN/A
6:30 AM79 °FScattered clouds.2 mph84%30.01 "HgN/A
5:30 AM79 °FScattered clouds.7 mph79%29.98 "HgN/A
Weather by CustomWeather, © 2015

See weather overviewHow to use our weather pages